Time,TemperatureF,DewpointF,PressureIn,WindDirection,WindDirectionDegrees,WindSpeedMPH,WindSpeedGustMPH,Humidity,HourlyPrecipIn,Conditions,Clouds,dailyrainin,SolarRadiationWatts/m^2,SoftwareType,DateUTC
2013-02-26 00:22:00,50.0,35.0,-100.00,WNW,289,21.0,31.0,56,0.00,,,0.25,0.000000,,2013-02-26 07:22:00,
2013-02-26 00:32:00,50.0,35.0,-100.00,WNW,289,21.0,31.0,56,0.00,,,0.25,0.000000,,2013-02-26 07:32:00,
2013-02-26 00:42:00,50.0,35.0,-100.00,WNW,289,21.0,31.0,56,0.00,,,0.25,0.000000,,2013-02-26 07:42:00,
2013-02-26 00:51:00,50.0,35.0,-100.00,WNW,289,21.0,31.0,56,0.00,,,0.25,0.000000,,2013-02-26 07:51:00,
2013-02-26 01:11:00,49.0,34.0,-100.00,WNW,290,20.0,31.0,57,0.00,,,0.24,0.000000,,2013-02-26 08:11:00,
2013-02-26 01:21:00,49.0,34.0,-100.00,WNW,290,20.0,31.0,57,0.00,,,0.24,0.000000,,2013-02-26 08:21:00,
2013-02-26 01:31:00,49.0,34.0,-100.00,WNW,290,20.0,31.0,57,0.00,,,0.24,0.000000,,2013-02-26 08:31:00,
2013-02-26 01:42:00,49.0,34.0,-100.00,WNW,290,20.0,31.0,57,0.00,,,0.24,0.000000,,2013-02-26 08:42:00,
2013-02-26 01:52:00,49.0,34.0,-100.00,WNW,290,20.0,31.0,57,0.00,,,0.24,0.000000,,2013-02-26 08:52:00,
2013-02-26 02:21:00,47.0,34.0,-100.00,WNW,297,20.0,30.0,60,0.00,,,0.24,0.000000,,2013-02-26 09:21:00,
2013-02-26 02:32:00,47.0,34.0,-100.00,WNW,297,20.0,30.0,60,0.00,,,0.24,0.000000,,2013-02-26 09:32:00,
2013-02-26 02:43:00,47.0,34.0,-100.00,WNW,297,20.0,30.0,60,0.00,,,0.24,0.000000,,2013-02-26 09:43:00,
2013-02-26 02:51:00,47.0,34.0,-100.00,WNW,297,20.0,30.0,60,0.00,,,0.24,0.000000,,2013-02-26 09:51:00,
2013-02-26 03:21:00,47.0,33.0,-100.00,WNW,301,17.0,28.0,59,0.00,,,0.24,0.000000,,2013-02-26 10:21:00,
2013-02-26 03:31:00,47.0,33.0,-100.00,WNW,301,17.0,28.0,59,0.00,,,0.24,0.000000,,2013-02-26 10:31:00,
2013-02-26 03:42:00,47.0,33.0,-100.00,WNW,301,17.0,28.0,59,0.00,,,0.24,0.000000,,2013-02-26 10:42:00,
2013-02-26 03:52:00,47.0,33.0,-100.00,WNW,301,17.0,28.0,59,0.00,,,0.24,0.000000,,2013-02-26 10:52:00,
2013-02-26 04:12:00,47.0,34.0,-100.00,WNW,290,16.0,28.0,60,0.00,,,0.24,0.000000,,2013-02-26 11:12:00,
2013-02-26 04:22:00,47.0,34.0,-100.00,WNW,290,16.0,28.0,60,0.00,,,0.24,0.000000,,2013-02-26 11:22:00,
2013-02-26 04:32:00,47.0,34.0,-100.00,WNW,290,16.0,28.0,60,0.00,,,0.24,0.000000,,2013-02-26 11:32:00,
2013-02-26 04:42:00,47.0,34.0,-100.00,WNW,290,16.0,28.0,60,0.00,,,0.24,0.000000,,2013-02-26 11:42:00,
2013-02-26 04:52:00,47.0,34.0,-100.00,WNW,290,16.0,28.0,60,0.00,,,0.24,0.000000,,2013-02-26 11:52:00,
2013-02-26 05:11:00,46.0,33.0,-100.00,WNW,297,14.0,21.0,61,0.00,,,0.24,0.000000,,2013-02-26 12:11:00,
2013-02-26 05:22:00,46.0,33.0,-100.00,WNW,297,14.0,21.0,61,0.00,,,0.24,0.000000,,2013-02-26 12:22:00,
2013-02-26 05:32:00,46.0,33.0,-100.00,WNW,297,14.0,21.0,61,0.00,,,0.24,0.000000,,2013-02-26 12:32:00,
2013-02-26 05:42:00,46.0,33.0,-100.00,WNW,297,14.0,21.0,61,0.00,,,0.24,0.000000,,2013-02-26 12:42:00,
2013-02-26 05:52:00,46.0,33.0,-100.00,WNW,297,14.0,21.0,61,0.00,,,0.24,0.000000,,2013-02-26 12:52:00,
2013-02-26 06:21:00,45.0,33.0,-100.00,WNW,296,13.0,22.0,63,0.00,,,0.24,2.000000,,2013-02-26 13:21:00,
2013-02-26 06:32:00,45.0,33.0,-100.00,WNW,296,13.0,22.0,63,0.00,,,0.24,2.000000,,2013-02-26 13:32:00,
2013-02-26 06:42:00,45.0,33.0,-100.00,WNW,296,13.0,22.0,63,0.00,,,0.24,2.000000,,2013-02-26 13:42:00,
2013-02-26 06:51:00,45.0,33.0,-100.00,WNW,296,13.0,22.0,63,0.00,,,0.24,2.000000,,2013-02-26 13:51:00,
2013-02-26 07:11:00,47.0,34.0,-100.00,WNW,301,14.0,24.0,61,0.00,,,0.24,127.000000,,2013-02-26 14:11:00,
2013-02-26 07:21:00,47.0,34.0,-100.00,WNW,301,14.0,24.0,61,0.00,,,0.24,127.000000,,2013-02-26 14:21:00,
2013-02-26 07:32:00,47.0,34.0,-100.00,WNW,301,14.0,24.0,61,0.00,,,0.24,127.000000,,2013-02-26 14:32:00,
2013-02-26 07:42:00,47.0,34.0,-100.00,WNW,301,14.0,24.0,61,0.00,,,0.24,127.000000,,2013-02-26 14:42:00,
2013-02-26 07:52:00,47.0,34.0,-100.00,WNW,301,14.0,24.0,61,0.00,,,0.24,127.000000,,2013-02-26 14:52:00,
2013-02-26 08:11:00,49.0,35.0,-100.00,NW,310,14.0,25.0,59,0.00,,,0.24,377.000000,,2013-02-26 15:11:00,
2013-02-26 08:22:00,49.0,35.0,-100.00,NW,310,14.0,25.0,59,0.00,,,0.24,377.000000,,2013-02-26 15:22:00,
2013-02-26 08:32:00,49.0,35.0,-100.00,NW,310,14.0,25.0,59,0.00,,,0.24,377.000000,,2013-02-26 15:32:00,
2013-02-26 08:42:00,49.0,35.0,-100.00,NW,310,14.0,25.0,59,0.00,,,0.24,377.000000,,2013-02-26 15:42:00,
2013-02-26 08:51:00,49.0,35.0,-100.00,NW,310,14.0,25.0,59,0.00,,,0.24,377.000000,,2013-02-26 15:51:00,
2013-02-26 09:22:00,51.0,36.0,-100.00,NW,307,15.0,24.0,56,0.00,,,0.23,614.000000,,2013-02-26 16:22:00,
2013-02-26 09:32:00,51.0,36.0,-100.00,NW,307,15.0,24.0,56,0.00,,,0.23,614.000000,,2013-02-26 16:32:00,
2013-02-26 09:42:00,51.0,36.0,-100.00,NW,307,15.0,24.0,56,0.00,,,0.23,614.000000,,2013-02-26 16:42:00,
2013-02-26 09:51:00,51.0,36.0,-100.00,NW,307,15.0,24.0,56,0.00,,,0.23,614.000000,,2013-02-26 16:51:00,
2013-02-26 10:11:00,54.0,38.0,-100.00,West,281,13.0,23.0,55,0.00,,,0.18,800.000000,,2013-02-26 17:11:00,
2013-02-26 10:21:00,54.0,38.0,-100.00,West,281,13.0,23.0,55,0.00,,,0.18,800.000000,,2013-02-26 17:21:00,
2013-02-26 10:32:00,54.0,38.0,-100.00,West,281,13.0,23.0,55,0.00,,,0.18,800.000000,,2013-02-26 17:32:00,
2013-02-26 10:41:00,54.0,38.0,-100.00,West,281,13.0,23.0,55,0.00,,,0.18,800.000000,,2013-02-26 17:41:00,
2013-02-26 10:52:00,54.0,38.0,-100.00,West,281,13.0,23.0,55,0.00,,,0.18,800.000000,,2013-02-26 17:52:00,
2013-02-26 12:11:00,58.0,39.0,-100.00,West,278,12.0,19.0,50,-99.99,,,0.18,938.000000,,2013-02-26 19:11:00,
2013-02-26 12:22:00,58.0,39.0,-100.00,West,278,12.0,19.0,50,-99.99,,,0.18,938.000000,,2013-02-26 19:22:00,
2013-02-26 12:32:00,58.0,39.0,-100.00,West,278,12.0,19.0,50,-99.99,,,0.18,938.000000,,2013-02-26 19:32:00,
2013-02-26 12:42:00,58.0,39.0,-100.00,West,278,12.0,19.0,50,-99.99,,,0.18,938.000000,,2013-02-26 19:42:00,
2013-02-26 12:52:00,58.0,39.0,-100.00,West,278,12.0,19.0,50,-99.99,,,0.18,938.000000,,2013-02-26 19:52:00,
2013-02-26 13:21:00,61.0,40.0,-100.00,West,275,12.0,20.0,46,0.00,,,0.14,912.000000,,2013-02-26 20:21:00,
2013-02-26 13:32:00,61.0,40.0,-100.00,West,275,12.0,20.0,46,0.00,,,0.14,912.000000,,2013-02-26 20:32:00,
2013-02-26 13:41:00,61.0,40.0,-100.00,West,275,12.0,20.0,46,0.00,,,0.14,912.000000,,2013-02-26 20:41:00,
2013-02-26 13:51:00,61.0,40.0,-100.00,West,275,12.0,20.0,46,0.00,,,0.14,912.000000,,2013-02-26 20:51:00,
2013-02-26 14:21:00,62.0,40.0,-100.00,West,277,12.0,18.0,44,0.00,,,0.00,812.000000,,2013-02-26 21:21:00,
2013-02-26 14:31:00,62.0,40.0,-100.00,West,277,12.0,18.0,44,0.00,,,0.00,812.000000,,2013-02-26 21:31:00,
2013-02-26 14:41:00,62.0,40.0,-100.00,West,277,12.0,18.0,44,0.00,,,0.00,812.000000,,2013-02-26 21:41:00,
2013-02-26 14:51:00,62.0,40.0,-100.00,West,277,12.0,18.0,44,0.00,,,0.00,812.000000,,2013-02-26 21:51:00,
2013-02-26 15:21:00,63.0,39.0,-100.00,WNW,302,13.0,20.0,41,0.00,,,0.00,558.000000,,2013-02-26 22:21:00,
2013-02-26 15:32:00,63.0,39.0,-100.00,WNW,302,13.0,20.0,41,0.00,,,0.00,558.000000,,2013-02-26 22:32:00,
2013-02-26 15:41:00,63.0,39.0,-100.00,WNW,302,13.0,20.0,41,0.00,,,0.00,558.000000,,2013-02-26 22:41:00,
2013-02-26 15:51:00,63.0,39.0,-100.00,WNW,302,13.0,20.0,41,0.00,,,0.00,558.000000,,2013-02-26 22:51:00,
2013-02-26 16:21:00,62.0,38.0,-100.00,NW,306,9.0,16.0,41,0.00,,,0.00,383.000000,,2013-02-26 23:21:00,
2013-02-26 16:31:00,62.0,38.0,-100.00,NW,306,9.0,16.0,41,0.00,,,0.00,383.000000,,2013-02-26 23:31:00,
2013-02-26 16:41:00,62.0,38.0,-100.00,NW,306,9.0,16.0,41,0.00,,,0.00,383.000000,,2013-02-26 23:41:00,
2013-02-26 16:52:00,62.0,38.0,-100.00,NW,306,9.0,16.0,41,0.00,,,0.00,383.000000,,2013-02-26 23:52:00,
2013-02-26 17:11:00,58.0,42.0,-100.00,WNW,299,4.0,12.0,55,0.00,,,0.00,116.000000,,2013-02-27 00:11:00,
2013-02-26 17:22:00,58.0,42.0,-100.00,WNW,299,4.0,12.0,55,0.00,,,0.00,116.000000,,2013-02-27 00:22:00,
2013-02-26 17:32:00,58.0,42.0,-100.00,WNW,299,4.0,12.0,55,0.00,,,0.00,116.000000,,2013-02-27 00:32:00,
2013-02-26 17:42:00,58.0,42.0,-100.00,WNW,299,4.0,12.0,55,0.00,,,0.00,116.000000,,2013-02-27 00:42:00,
2013-02-26 17:51:00,58.0,42.0,-100.00,WNW,299,4.0,12.0,55,0.00,,,0.00,116.000000,,2013-02-27 00:51:00,
2013-02-26 18:22:00,55.0,42.0,-100.00,WNW,287,4.0,5.0,62,0.00,,,0.00,5.000000,,2013-02-27 01:22:00,
2013-02-26 18:32:00,55.0,42.0,-100.00,WNW,287,4.0,5.0,62,0.00,,,0.00,5.000000,,2013-02-27 01:32:00,
2013-02-26 18:42:00,55.0,42.0,-100.00,WNW,287,4.0,5.0,62,0.00,,,0.00,5.000000,,2013-02-27 01:42:00,
2013-02-26 18:51:00,55.0,42.0,-100.00,WNW,287,4.0,5.0,62,0.00,,,0.00,5.000000,,2013-02-27 01:51:00,
2013-02-26 19:15:00,55.0,46.0,-100.00,West,264,3.0,6.0,71,0.00,,,0.00,0.000000,,2013-02-27 02:15:00,
2013-02-26 19:23:00,55.0,46.0,-100.00,West,264,3.0,6.0,71,0.00,,,0.00,0.000000,,2013-02-27 02:23:00,
2013-02-26 19:32:00,55.0,46.0,-100.00,West,264,3.0,6.0,71,0.00,,,0.00,0.000000,,2013-02-27 02:32:00,
2013-02-26 19:42:00,55.0,46.0,-100.00,West,264,3.0,6.0,71,0.00,,,0.00,0.000000,,2013-02-27 02:42:00,
2013-02-26 19:52:00,55.0,46.0,-100.00,West,264,3.0,6.0,71,0.00,,,0.00,0.000000,,2013-02-27 02:52:00,
2013-02-26 20:22:00,54.0,45.0,-100.00,West,265,3.0,5.0,72,0.00,,,0.00,0.000000,,2013-02-27 03:22:00,
2013-02-26 20:32:00,54.0,45.0,-100.00,West,265,3.0,5.0,72,0.00,,,0.00,0.000000,,2013-02-27 03:32:00,
2013-02-26 20:42:00,54.0,45.0,-100.00,West,265,3.0,5.0,72,0.00,,,0.00,0.000000,,2013-02-27 03:42:00,
2013-02-26 20:52:00,54.0,45.0,-100.00,West,265,3.0,5.0,72,0.00,,,0.00,0.000000,,2013-02-27 03:52:00,
2013-02-26 21:11:00,54.0,46.0,-100.00,WNW,292,3.0,5.0,74,0.00,,,0.00,0.000000,,2013-02-27 04:11:00,
2013-02-26 21:22:00,54.0,46.0,-100.00,WNW,292,3.0,5.0,74,0.00,,,0.00,0.000000,,2013-02-27 04:22:00,
2013-02-26 21:32:00,54.0,46.0,-100.00,WNW,292,3.0,5.0,74,0.00,,,0.00,0.000000,,2013-02-27 04:32:00,
2013-02-26 21:42:00,54.0,46.0,-100.00,WNW,292,3.0,5.0,74,0.00,,,0.00,0.000000,,2013-02-27 04:42:00,
2013-02-26 21:51:00,54.0,46.0,-100.00,WNW,292,3.0,5.0,74,0.00,,,0.00,0.000000,,2013-02-27 04:51:00,
2013-02-26 22:22:00,53.0,44.0,-100.00,NW,308,3.0,6.0,71,0.00,,,0.00,0.000000,,2013-02-27 05:22:00,
2013-02-26 22:32:00,53.0,44.0,-100.00,NW,308,3.0,6.0,71,0.00,,,0.00,0.000000,,2013-02-27 05:32:00,
2013-02-26 22:42:00,53.0,44.0,-100.00,NW,308,3.0,6.0,71,0.00,,,0.00,0.000000,,2013-02-27 05:42:00,
2013-02-26 22:52:00,53.0,44.0,-100.00,NW,308,3.0,6.0,71,0.00,,,0.00,0.000000,,2013-02-27 05:52:00,
2013-02-26 23:11:00,52.0,42.0,-100.00,WNW,289,0.0,5.0,68,0.00,,,0.00,0.000000,,2013-02-27 06:11:00,
2013-02-26 23:21:00,52.0,42.0,-100.00,WNW,289,0.0,5.0,68,0.00,,,0.00,0.000000,,2013-02-27 06:21:00,
2013-02-26 23:33:00,52.0,42.0,-100.00,WNW,289,0.0,5.0,68,0.00,,,0.00,0.000000,,2013-02-27 06:33:00,
2013-02-26 23:41:00,52.0,42.0,-100.00,WNW,289,0.0,5.0,68,0.00,,,0.00,0.000000,,2013-02-27 06:41:00,
2013-02-26 23:51:00,52.0,42.0,-100.00,WNW,289,0.0,5.0,68,0.00,,,0.00,0.000000,,2013-02-27 06:51:00,